Stations météo

réclame
Mon MeteoGroup
Wernigerode, Allemagne (10454): Température de l'air & dewpoint: 09.09.2019 12:00:00 - 15.09.2019 12:00:00 (CEST)Wernigerode, Allemagne (10454): Température de l'air 5cm & Température de l'air -5cm: 09.09.2019 12:00:00 - 15.09.2019 12:00:00 (CEST)Wernigerode, Allemagne (10454): Température de l'air -20cm & Température de l'air -100cm: 09.09.2019 12:00:00 - 15.09.2019 12:00:00 (CEST)Wernigerode, Allemagne (10454): Vitesse du vent & gusts: 09.09.2019 12:00:00 - 15.09.2019 12:00:00 (CEST)Wernigerode, Allemagne (10454): Direction du vent: 09.09.2019 12:00:00 - 15.09.2019 12:00:00 (CEST)Wernigerode, Allemagne (10454): reduced air pressure: 09.09.2019 12:00:00 - 15.09.2019 12:00:00 (CEST)Wernigerode, Allemagne (10454): visibility: 09.09.2019 12:00:00 - 15.09.2019 12:00:00 (CEST)Wernigerode, Allemagne (10454): Ensoleillement: 09.09.2019 12:00:00 - 15.09.2019 12:00:00 (CEST)Wernigerode, Allemagne (10454): Quantités de précipitations: 09.09.2019 12:00:00 - 15.09.2019 12:00:00 (CEST)
Date & Time tt [°C] td [°C] tt 5cm [°C] tt -5cm [°C] tt -20cm [°C] tt -100cm [°C] ff [km/h] ff [knt] fx [km/h] fx [knt] dd ppp [hPa] vv [km] sd [min] rr [mm]
15.09.2019 12:00:00 22,3 1,5 24,5 25,0 16,1 17,6 17 9 34 18 W 1021,1 64 60 0,0
15.09.2019 11:00:00 20,8 3,9 22,4 21,1 15,6 17,6 18 10 34 18 W 1021,5 68 60 0,0
15.09.2019 10:00:00 20,4 5,1 22,0 18,1 15,3 17,7 16 9 28 15 W 1021,9 60 60 0,0
15.09.2019 09:00:00 18,2 5,8 18,6 13,6 15,4 17,7 9 5 16 9 N 1022,4 66 60 0,0
15.09.2019 08:00:00 14,0 7,5 10,1 10,8 15,6 17,7 7 4 14 8 SSE 1023,0 75 22 0,0
15.09.2019 07:00:00 13,1 6,7 8,7 10,7 15,9 17,7 6 3 16 9 S 1023,3 55 0 0,0
15.09.2019 06:00:00 11,6 6,4 7,5 10,7 16,2 17,7 4 2 11 6 ESE 1023,6 60 0 0,0
15.09.2019 05:00:00 10,5 6,2 7,2 11,2 16,4 17,7 2 1 14 8 SSW 1024,5 66 0 0,0
15.09.2019 04:00:00 12,9 6,7 8,2 11,9 16,7 17,7 4 2 18 10 SW 1025,2 55 0 0,0
15.09.2019 03:00:00 14,7 7,1 12,7 12,8 16,9 17,7 9 5 32 18 SSW 1025,5 52 0 0,0
15.09.2019 02:00:00 15,3 6,8 13,3 13,0 17,3 17,7 14 8 37 20 SSW 1026,1 60 0 0,0
15.09.2019 01:00:00 14,5 6,1 12,8 12,7 17,7 17,7 13 7 29 16 SSW 1027,3 46 0 0,0
15.09.2019 00:00:00 8,4 5,1 6,0 12,1 18,1 17,7 2 1 8 4 SW 1029,1 49 0 0,0
14.09.2019 23:00:00 10,1 5,3 7,5 13,1 18,6 17,7 6 3 10 5 ESE 1029,4 54 0 0,0
14.09.2019 22:00:00 10,7 5,6 7,4 14,1 19,1 17,7 5 3 11 6 SSE 1030,1 56 0 0,0
14.09.2019 21:00:00 11,0 6,6 8,0 15,7 19,5 17,7 3 2 10 5 E 1030,7 44 0 0,0
14.09.2019 20:00:00 13,9 7,0 11,1 18,0 19,8 17,7 4 2 8 4 S 1030,5 49 4 0,0
14.09.2019 19:00:00 16,9 4,6 16,3 20,6 20,0 17,7 5 3 8 4 ESE 1030,1 67 20 0,0
14.09.2019 18:00:00 17,3 4,3 17,7 23,0 19,8 17,7 6 4 14 8 ENE 1030,4 52 13 0,0
14.09.2019 17:00:00 18,0 4,2 20,8 27,3 19,4 17,7 9 5 16 8 NE 1031,1 61 60 0,0
14.09.2019 16:00:00 18,3 4,7 23,5 29,7 18,7 17,7 6 3 19 10 ENE 1031,7 75 60 0,0
14.09.2019 15:00:00 17,7 4,9 23,9 28,9 17,9 17,7 8 5 19 10 ENE 1032,4 61 53 0,0
14.09.2019 14:00:00 17,5 5,4 23,8 28,0 17,1 17,7 8 4 16 9 NE 1033,1 67 50 0,0
14.09.2019 13:00:00 16,5 5,5 22,6 27,4 16,2 17,7 6 4 15 8 ESE 1034,1 67 60 0,0
14.09.2019 12:00:00 15,9 6,4 20,4 24,3 15,5 17,7 6 4 15 8 E 1034,7 42 60 0,0
14.09.2019 11:00:00 14,2 6,9 18,7 20,4 15,0 17,7 8 4 15 8 NE 1035,4 39 60 0,0
14.09.2019 10:00:00 14,1 7,5 15,9 15,8 14,8 17,7 3 2 8 4 ENE 1035,2 44 60 0,0
14.09.2019 09:00:00 12,0 7,0 12,0 11,3 14,9 17,7 3 1 9 5 SE 1035,5 42 60 0,0
14.09.2019 08:00:00 8,4 6,0 6,3 8,6 15,2 17,7 6 3 9 5 SSE 1035,7 52 38 0,0
14.09.2019 07:00:00 5,6 4,4 2,8 8,3 15,6 17,7 5 3 9 5 S 1036,1 39 0 0,0
14.09.2019 06:00:00 5,9 5,0 3,2 8,9 15,9 17,7 5 3 8 4 SSE 1035,9 35 0 0,0
14.09.2019 05:00:00 6,8 5,5 4,4 9,8 16,3 17,7 4 2 11 6 SE 1035,8 40 0 0,0
14.09.2019 04:00:00 8,2 6,4 5,3 10,6 16,6 17,7 6 3 8 4 S 1035,7 46 0 0,0
14.09.2019 03:00:00 8,7 6,9 7,6 11,1 17,0 17,7 5 3 8 4 SSE 1035,8 48 0 0,0
14.09.2019 02:00:00 7,5 6,3 5,3 10,9 17,4 17,7 3 2 9 5 SSW 1035,7 41 0 0,0
14.09.2019 01:00:00 8,6 6,8 5,7 11,7 17,9 17,7 3 2 12 6 S 1035,7 43 0 0,0
14.09.2019 00:00:00 9,7 6,9 6,7 12,7 18,3 17,7 0 0 11 6 N 1035,4 52 0 0,0
13.09.2019 23:00:00 11,3 7,4 8,0 14,0 18,6 17,7 6 3 11 6 W 1034,9 48 0 0,0
13.09.2019 22:00:00 12,6 8,0 11,2 15,0 19,0 17,7 5 3 16 9 NW 1034,4 29 0 0,0
13.09.2019 21:00:00 14,6 8,1 12,6 16,2 19,3 17,7 9 5 24 13 NW 1033,5 53 0 0,0
13.09.2019 20:00:00 16,8 8,9 15,8 18,2 19,4 17,7 10 5 23 12 NW 1032,4 63 0 0,0
13.09.2019 19:00:00 18,1 9,8 17,9 19,5 19,5 17,7 9 5 27 15 NW 1031,4 59 7 0,0
13.09.2019 18:00:00 18,9 9,4 19,2 21,1 19,4 17,7 16 9 27 15 NW 1031,0 56 17 0,0
13.09.2019 17:00:00 19,7 10,9 21,6 22,3 19,4 17,7 11 6 19 10 WNW 1030,8 75 9 0,0
13.09.2019 16:00:00 18,3 13,2 19,2 20,5 19,4 17,7 10 5 24 13 W 1030,9 74 0 0,0
13.09.2019 15:00:00 17,4 14,1 16,9 19,9 19,2 17,7 16 9 30 16 WNW 1030,9 53 0 0,2
13.09.2019 14:00:00 19,4 13,6 20,5 24,7 18,8 17,7 15 8 40 21 W 1029,9 73 6 0,0
13.09.2019 13:00:00 19,9 14,3 21,7 23,8 18,4 17,7 16 9 36 20 W 1029,3 43 9 0,0
13.09.2019 12:00:00 19,7 14,3 21,3 22,1 18,1 17,7 14 8 30 16 W 1029,2 47 0 0,0
13.09.2019 11:00:00 18,8 14,2 19,6 20,2 17,9 17,7 16 8 34 18 W 1029,1 51 1 0,0
13.09.2019 10:00:00 18,4 14,2 19,1 19,1 17,8 17,7 21 11 38 21 W 1028,5 35 0 0,0
13.09.2019 09:00:00 18,0 13,5 18,1 18,0 17,8 17,7 16 9 36 19 W 1028,0 32 0 0,0
13.09.2019 08:00:00 18,3 13,0 17,9 16,9 17,8 17,7 14 8 40 21 WSW 1027,4 53 9 0,0
13.09.2019 07:00:00 18,3 11,9 17,2 16,1 17,9 17,7 17 9 35 19 WSW 1027,1 67 0 0,0
13.09.2019 06:00:00 18,3 12,6 17,8 17,1 18,0 17,7 19 11 39 21 WSW 1027,1 61 0 0,0
13.09.2019 05:00:00 18,7 12,3 18,1 16,9 18,1 17,7 18 10 37 20 WSW 1026,7 46 0 0,0
13.09.2019 04:00:00 18,5 11,7 17,8 16,4 18,3 17,7 13 7 29 15 WSW 1026,8 64 0 0,0
13.09.2019 03:00:00 17,7 11,6 16,2 15,4 18,5 17,7 13 7 29 16 W 1027,6 60 0 0,0
13.09.2019 02:00:00 18,0 12,1 16,7 15,9 18,9 17,7 6 3 18 10 WSW 1027,8 52 0 0,0
13.09.2019 01:00:00 14,5 11,7 11,3 15,3 19,3 17,7 4 2 13 7 SSW 1028,0 41 0 0,0
13.09.2019 00:00:00 14,5 12,0 12,1 16,0 19,7 17,7 5 3 12 7 SSW 1028,1 40 0 0,0
12.09.2019 23:00:00 15,4 12,0 13,0 17,0 20,1 17,7 4 2 12 6 S 1028,1 51 0 0,0
12.09.2019 22:00:00 16,5 12,2 14,0 18,0 20,5 17,7 8 5 16 9 SSW 1028,0 45 0 0,0
12.09.2019 21:00:00 18,1 11,5 15,5 19,6 20,8 17,7 6 4 14 7 SSW 1027,8 48 0 0,0
12.09.2019 20:00:00 20,1 10,9 18,9 21,6 21,0 17,7 8 4 18 10 SW 1027,2 63 0 0,0
12.09.2019 19:00:00 21,4 10,5 21,2 23,4 21,0 17,7 10 5 32 17 WSW 1026,9 64 32 0,0
12.09.2019 18:00:00 22,5 11,3 23,8 26,8 20,8 17,7 16 9 28 15 WSW 1026,5 70 30 0,0
12.09.2019 17:00:00 21,6 12,1 22,3 27,4 20,2 17,7 16 8 29 16 SW 1026,7 73 34 0,0
12.09.2019 16:00:00 23,3 12,0 26,7 31,8 19,4 17,7 13 7 30 16 SW 1026,5 53 59 0,0
12.09.2019 15:00:00 23,1 11,2 26,7 31,2 18,5 17,7 16 9 31 17 SW 1026,8 58 56 0,0
12.09.2019 14:00:00 21,8 11,6 25,6 27,6 17,9 17,7 19 10 35 19 WSW 1027,4 54 38 0,0
12.09.2019 13:00:00 19,7 12,3 20,3 22,1 17,5 17,7 13 7 27 15 WSW 1027,6 52 14 0,0
12.09.2019 12:00:00 19,3 12,6 21,9 21,7 17,3 17,7 7 4 15 8 SE 1027,3 57 9 0,0
12.09.2019 11:00:00 17,4 12,5 17,7 18,0 17,1 17,7 6 3 14 8 S 1027,2 68 0 0,0
12.09.2019 10:00:00 17,8 12,3 18,2 18,3 17,0 17,8 3 2 13 7 SW 1026,8 62 4 0,0
12.09.2019 09:00:00 17,1 12,6 18,3 17,3 16,9 17,8 5 3 20 11 E 1025,9 75 6 0,0
12.09.2019 08:00:00 16,0 12,2 15,8 15,7 17,0 17,8 6 3 15 8 S 1025,6 75 0 0,0
12.09.2019 07:00:00 15,2 11,6 14,5 15,0 17,2 17,8 5 3 16 9 SSW 1025,3 75 0 0,0
12.09.2019 06:00:00 15,7 11,6 14,2 15,4 17,3 17,8 7 4 30 16 SSW 1024,2 75 0 0,0
12.09.2019 05:00:00 15,6 12,0 15,3 15,8 17,5 17,8 14 7 38 21 WSW 1024,4 75 0 0,0
12.09.2019 04:00:00 15,7 11,9 15,4 15,9 17,6 17,8 11 6 33 18 WSW 1024,2 72 0 0,0
12.09.2019 03:00:00 15,7 11,6 15,4 16,1 17,8 17,8 18 10 45 24 WSW 1023,7 74 0 0,0
12.09.2019 02:00:00 16,0 11,2 15,4 16,2 18,0 17,8 6 3 23 12 SSE 1023,3 75 0 0,0
12.09.2019 01:00:00 15,8 11,0 15,4 16,6 18,2 17,8 6 3 30 16 SE 1023,0 75 0 0,0
12.09.2019 00:00:00 15,8 10,7 15,5 16,8 18,4 17,9 8 4 24 13 SSW 1022,9 75 0 0,0
11.09.2019 23:00:00 16,4 9,8 15,5 17,0 18,7 17,9 7 4 26 14 SW 1022,7 49 0 0,0
11.09.2019 22:00:00 17,1 8,6 16,5 17,7 19,0 17,9 12 7 22 12 NW 1022,4 60 0 0,0
11.09.2019 21:00:00 18,5 6,8 17,6 18,4 19,3 17,9 13 7 26 14 W 1022,0 69 0 0,0
11.09.2019 20:00:00 18,3 6,8 15,8 19,5 19,5 17,9 5 3 15 8 S 1021,1 49 0 0,0
11.09.2019 19:00:00 19,3 6,2 18,7 21,2 19,6 17,9 9 5 27 15 SW 1020,9 56 0 0,0
11.09.2019 18:00:00 20,3 5,5 20,3 24,4 19,3 17,9 18 10 32 17 WSW 1020,8 72 41 0,0
11.09.2019 17:00:00 20,9 5,4 22,1 26,3 18,8 18,0 12 7 36 19 WSW 1020,6 68 52 0,0
11.09.2019 16:00:00 22,0 5,4 24,7 29,1 18,0 18,0 14 8 37 20 WSW 1020,6 75 58 0,0
11.09.2019 15:00:00 21,7 5,8 24,7 28,6 17,1 18,0 14 8 37 20 WSW 1020,7 75 59 0,0
11.09.2019 14:00:00 21,1 5,5 23,6 27,7 16,1 18,0 13 7 31 17 WSW 1021,1 75 52 0,0
11.09.2019 13:00:00 20,6 4,8 23,8 27,2 15,1 18,0 17 9 29 15 SSW 1021,3 67 60 0,0
11.09.2019 12:00:00 20,2 5,4 22,8 24,0 14,2 18,0 14 8 31 17 SSW 1021,6 48 60 0,0
11.09.2019 11:00:00 18,9 5,7 20,5 19,7 13,6 18,0 11 6 24 13 SSW 1022,1 57 60 0,0
11.09.2019 10:00:00 17,4 5,7 19,0 15,3 13,2 18,1 8 5 21 11 S 1021,9 53 60 0,0
11.09.2019 09:00:00 15,7 5,6 15,9 11,3 13,2 18,1 12 6 22 12 S 1022,1 41 60 0,0
11.09.2019 08:00:00 13,1 5,8 11,6 8,1 13,4 18,1 11 6 19 10 SSW 1022,0 44 32 0,0
11.09.2019 07:00:00 6,0 4,7 3,8 6,9 13,7 18,1 4 2 10 6 S 1022,4 38 0 0,0
11.09.2019 06:00:00 6,1 4,3 3,7 7,3 14,0 18,1 3 2 13 7 ESE 1022,2 45 0 0,0
11.09.2019 05:00:00 5,8 4,4 3,6 7,5 14,2 18,1 5 3 8 4 SSE 1022,1 56 0 0,0
11.09.2019 04:00:00 8,5 5,2 5,8 8,0 14,6 18,1 8 4 15 8 SSE 1022,0 49 0 0,0
11.09.2019 03:00:00 8,3 5,5 5,6 8,1 14,9 18,1 8 4 11 6 SSE 1021,9 62 0 0,0
11.09.2019 02:00:00 7,7 5,1 4,5 8,6 15,3 18,2 6 4 13 7 SSE 1021,8 66 0 0,0
11.09.2019 01:00:00 8,5 5,4 5,3 8,9 15,7 18,2 7 4 11 6 SSE 1021,5 70 0 0,0
11.09.2019 00:00:00 7,0 5,0 4,6 9,5 16,2 18,2 4 2 10 5 SSE 1021,3 52 0 0,0
10.09.2019 23:00:00 7,7 5,3 5,4 10,3 16,6 18,2 4 2 8 5 SSE 1020,8 50 0 0,0
10.09.2019 22:00:00 10,6 5,5 6,9 11,3 17,1 18,2 6 4 11 6 S 1020,4 65 0 0,0
10.09.2019 21:00:00 11,6 5,6 7,9 12,6 17,5 18,2 6 3 13 7 S 1019,7 50 0 0,0
10.09.2019 20:00:00 12,8 6,3 9,1 14,4 17,8 18,3 6 3 17 9 S 1019,1 46 11 0,0
10.09.2019 19:00:00 16,7 4,2 15,7 17,0 17,9 18,3 8 4 22 12 WNW 1018,2 69 48 0,0
10.09.2019 18:00:00 17,6 3,5 18,3 20,7 17,8 18,3 15 8 27 14 WNW 1017,7 75 52 0,0
10.09.2019 17:00:00 17,6 3,8 19,4 20,8 17,7 18,3 12 6 29 15 WSW 1017,5 67 20 0,0
10.09.2019 16:00:00 17,5 4,7 19,3 20,7 17,5 18,3 16 9 32 18 WSW 1017,2 75 25 0,0
10.09.2019 15:00:00 16,6 4,3 17,0 20,2 17,1 18,3 18 10 33 18 W 1017,2 56 17 0,0
10.09.2019 14:00:00 17,0 4,2 18,6 23,1 16,4 18,3 19 11 40 22 W 1016,9 73 51 0,0
10.09.2019 13:00:00 17,5 4,9 21,9 22,5 15,7 18,4 14 8 32 18 WSW 1016,7 59 59 0,0
10.09.2019 12:00:00 16,4 6,9 19,8 20,7 15,1 18,4 16 8 33 18 WNW 1016,8 67 60 0,0
10.09.2019 11:00:00 16,2 8,2 18,4 18,3 14,6 18,4 15 8 35 19 WSW 1016,8 70 58 0,0
10.09.2019 10:00:00 15,1 8,5 16,8 15,5 14,4 18,4 13 7 27 15 W 1016,5 57 59 0,0
10.09.2019 09:00:00 13,7 7,9 14,4 12,4 14,4 18,4 13 7 25 13 W 1016,0 52 60 0,0
10.09.2019 08:00:00 12,2 7,7 11,5 9,9 14,5 18,4 11 6 20 11 WSW 1015,7 57 38 0,0
10.09.2019 07:00:00 11,4 7,8 9,3 9,4 14,7 18,4 10 6 27 15 WSW 1015,3 58 0 0,0
10.09.2019 06:00:00 11,3 8,5 9,6 9,7 15,0 18,4 12 7 23 12 WSW 1015,0 39 0 0,0
10.09.2019 05:00:00 11,5 8,7 9,9 10,0 15,2 18,5 13 7 23 12 WSW 1014,7 33 0 0,0
10.09.2019 04:00:00 10,7 8,8 8,9 10,0 15,5 18,5 8 4 15 8 WSW 1014,7 31 0 0,0
10.09.2019 03:00:00 11,3 9,3 8,8 10,7 15,7 18,5 6 3 16 9 W 1014,5 28 0 0,0
10.09.2019 02:00:00 11,8 9,6 9,7 11,1 15,9 18,5 7 4 18 10 W 1014,1 35 0 0,0
10.09.2019 01:00:00 11,1 9,5 8,8 11,5 16,1 18,5 8 4 14 7 WSW 1013,6 25 0 0,0
10.09.2019 00:00:00 12,0 10,2 10,6 12,8 16,3 18,5 8 4 18 10 W 1013,9 22 0 0,0
09.09.2019 23:00:00 12,0 10,3 11,4 13,2 16,4 18,5 8 4 16 9 WSW 1014,3 26 0 0,0
09.09.2019 22:00:00 11,8 10,7 11,5 13,3 16,5 18,5 5 3 11 6 WSW 1014,0 15 0 0,1
09.09.2019 21:00:00 11,7 11,1 11,4 13,3 16,7 18,5 5 3 22 12 W 1013,9 5 0 1,3
09.09.2019 20:00:00 11,7 10,7 11,4 13,6 16,8 18,6 3 2 12 7 S 1013,2 17 0 1,4
09.09.2019 19:00:00 11,8 9,9 11,1 14,2 16,9 18,6 10 5 23 12 NNW 1013,2 14 0 1,2
09.09.2019 18:00:00 13,5 11,4 12,8 15,0 16,9 18,6 10 6 25 13 WNW 1012,6 12 0 0,4
09.09.2019 17:00:00 13,5 10,5 12,7 15,1 16,9 18,6 8 5 24 13 W 1012,4 37 0 0,1
09.09.2019 16:00:00 13,2 10,5 12,6 15,3 16,9 18,6 13 7 23 13 WNW 1012,9 24 0 0,4
09.09.2019 15:00:00 13,2 10,7 13,0 15,6 16,9 18,6 11 6 24 13 WNW 1012,9 19 0 0,1
09.09.2019 14:00:00 13,4 10,6 13,2 15,6 16,9 18,6 15 8 31 17 WNW 1012,9 24 0 0,0
09.09.2019 13:00:00 13,3 10,7 13,2 15,9 16,8 18,6 14 8 25 14 NW 1012,9 19 0 0,1
09.09.2019 12:00:00 13,4 10,4 13,1 15,8 16,8 18,6 12 6 23 12 WNW 1013,2 17 0 0,0

tt = Température de l'air
td = dewpoint
tt 5cm = Température de l'air 5cm
tt -5cm = Température de l'air -5cm
tt -20cm = Température de l'air -20cm
tt -100cm = Température de l'air -100cm
ff = Vitesse du vent
fx = gusts
dd = Direction du vent
ppp = reduced air pressure
vv = visibility
sd = Ensoleillement
rr = Quantités de précipitations

stations d'obs. à proximité